Regional Weather Roundup
Issued by NWS Albany, NY

Home | Current Version | Previous Version | Text Only | Print | Product List | Glossary On
Versions: 1 2 3 4 5 6 7 8 9 10 11 12 13 14 15 16 17 18 19 20 21 22 23 24 25 26 27 28 29 30 31 32 33 34 35 36 37 38 39 40 41 42 43 44 45 46 47 48 49 50
000
ASUS41 KALY 040110
RWRALY

NEW YORK STATE HOURLY WEATHER ROUNDUP
NATIONAL WEATHER SERVICE ALBANY NY
900 PM EDT THU SEP 03 2015

NOTE: "FAIR" INDICATES FEW OR NO CLOUDS BELOW 12,000 FEET WITH NO
SIGNIFICANT WEATHER AND/OR NO OBSTRUCTIONS TO VISIBILITY.

NYZ032-033-038>043-046>054-057>066-NYZ062>081-040200-
EAST


CITY           SKY/WX    TMP DP  RH WIND       PRES   REMARKS
ALBANY         PTCLDY    74  69  85 N7        29.92R
GLENS FALLS    PTCLDY    73  63  70 N8        29.93R
POUGHKEEPSIE   PTCLDY    79  68  69 NE5       29.88R
NEWBURGH       MOCLDY    81  68  65 VRB5      29.91R
MONTGOMERY     PTCLDY    77  65  66 NE7       29.90R
WHITE PLAINS   PTCLDY    74  66  76 CALM      29.89R
ISLIP          MOCLDY    77  71  82 SW5       29.86R
NEW YORK CITY  MOCLDY    84  66  54 S9        29.86R
CENTRAL PARK   PTCLDY    84  64  50 CALM      29.89R
$$

NYZ005>009-017-018-044>046-055-056-040200-
CENTRAL


CITY           SKY/WX    TMP DP  RH WIND       PRES   REMARKS
FULTON         CLEAR     71  69  93 NE3       29.95S FOG
SYRACUSE       PTCLDY    74  70  87 N7        29.94R
ROME           CLEAR     73  67  81 NW3       29.94S
ELMIRA         CLEAR     75  69  81 CALM      29.96R
BINGHAMTON     PTCLDY    73  66  78 N8        29.99R
MONTICELLO     PTCLDY    72  66  83 NW3       29.98R
$$

NYZ026>034-041>043-040200-
NORTH


CITY           SKY/WX    TMP DP  RH WIND       PRES   REMARKS
WATERTOWN      CLEAR     65  63  93 CALM      29.95R FOG
FORT DRUM      NOT AVBL
MASSENA        CLEAR     66  63  90 CALM      29.98R
SARANAC LAKE   PTCLDY    60  57  89 CALM      30.01R
PLATTSBURGH    PTCLDY    68  58  70 NW5       29.97R
$$

NYZ001>004-010>016-019>021-040200-
WEST


CITY           SKY/WX    TMP DP  RH WIND       PRES   REMARKS
NIAGARA FALLS  PTCLDY    73  68  84 N7        29.95R
BUFFALO        PTCLDY    77  69  76 NE3       29.96R
DUNKIRK        PTCLDY    72  70  93 S5        29.96S FOG
JAMESTOWN      CLOUDY    72  68  88 N8        30.01S
WELLSVILLE     PTCLDY    74  66  76 NE5       30.05R
ROCHESTER      PTCLDY    76  67  73 E6        29.96S
PENN YAN       CLEAR     72  68  87 CALM      29.98R
$$

             KEY
       WCI = WIND CHILL INDEX
       VSB = VISIBILITY
       HX  = HEAT INDEX
$$


USA.gov is the U.S. government's official web portal to all federal, state and local government web resources and services.